Kars, Turkey

9:24 AM +03 on February 24, 2017 (GMT +0300)
Kars

Weather History for LTCF - October, 2013

Change the Weather History Date:

Monday, October 14, 2013

  Actual Average Record
Temperature  
Mean Temperature 42 °F -  
Max Temperature 59 °F 50 °F - ()
Min Temperature 24 °F 28 °F - ()
Degree Days  
Heating Degree Days 24    
Moisture  
Dew Point 29 °F    
Average Humidity 61    
Maximum Humidity 100    
Minimum Humidity 16    
Precipitation  
Precipitation 0.00 in 0.04 in - ()
Sea Level Pressure  
Sea Level Pressure 30.22 in    
Wind  
Wind Speed 4 mph ()    
Max Wind Speed 12 mph    
Max Gust Speed -    
Visibility 6.0 miles    
Events      
T = Trace of Precipitation, MM = Missing Value Source: Averaged Metar Reports

Daily Weather History Graph

Daily Weather History Graph

Search for Another Location

Airport or City:

Trip Planner

Search our weather history database for the weather conditions in past years. The results will help you decide how hot, cold, wet, or windy it might be!

Date:

Astronomy

Oct. 14, 2013 Rise Set
Actual Time 6:17 AM EEST 5:29 PM EEST
Civil Twilight 5:49 AM EEST 5:56 PM EEST
Nautical Twilight 5:18 AM EEST 6:28 PM EEST
Astronomical Twilight 4:46 AM EEST 6:59 PM EEST
Moon 2:46 PM EEST (10/14) 1:08 AM EEST (10/14)
Length of Visible Light 12h 06m
Length of Day
11h 11m
Waxing Gibbous, 76% of the Moon is Illuminated
Oct 14
Waxing Gibbous
Oct 19
Full
Oct 27
Last Quarter
Nov 3
New
Nov 10
First Quarter

Hourly Weather History & Observations

Time (EEST) Temp. Windchill Dew Point Humidity Pressure Visibility Wind Dir Wind Speed Gust Speed Precip Events Conditions
12:50 AM 33.8 °F 27.0 °F 28.4 °F 81% 30.18 in - East 8.1 mph - N/A   Clear
1:50 AM 33.8 °F 25.3 °F 30.2 °F 87% 30.21 in - East 11.5 mph - N/A   Clear
3:00 AM 32 °F - 28 °F 79%  in 6 mi ENE 8.1 mph - -  
3:50 AM 30.2 °F - 28.4 °F 93% 30.21 in - Variable 1.2 mph - N/A   Clear
4:50 AM 28.4 °F - 26.6 °F 93% 30.21 in - WNW 2.3 mph - N/A   Clear
5:50 AM 24.8 °F - 24.8 °F 100% 30.21 in - NW 1.2 mph - N/A   Clear
6:50 AM 26.6 °F - 24.8 °F 93% 30.21 in - Calm Calm - N/A   Clear
7:50 AM 30.2 °F - 28.4 °F 93% 30.24 in - Calm Calm - N/A   Clear
8:50 AM 41.0 °F - 32.0 °F 70% 30.24 in - Calm Calm - N/A   Clear
9:00 AM 40 °F - 32 °F 63%  in 6 mi Calm Calm - -  
9:50 AM 46.4 °F - 32.0 °F 57% 30.24 in - Calm Calm - N/A   Clear
10:50 AM 48.2 °F - 32.0 °F 54% 30.24 in - ENE 4.6 mph - N/A   Clear
11:50 AM 51.8 °F - 30.2 °F 44% 30.24 in - NE 4.6 mph - N/A   Clear
12:50 PM 55.4 °F - 30.2 °F 38% 30.21 in - NNE 3.5 mph - N/A   Clear
1:50 PM 57.2 °F - 26.6 °F 31% 30.21 in - Variable 1.2 mph - N/A   Clear
2:50 PM 59.0 °F - 26.6 °F 29% 30.18 in - Variable 1.2 mph - N/A   Clear
3:00 PM 59 °F - 25 °F 16%  in 6 mi South 1.2 mph - -  
3:50 PM 57.2 °F - 24.8 °F 29% 30.18 in - Variable 4.6 mph - N/A   Clear
4:50 PM 55.4 °F - 26.6 °F 33% 30.18 in - East 3.5 mph - N/A   Clear
5:50 PM 46.4 °F 41.9 °F 28.4 °F 50% 30.21 in - ENE 9.2 mph - N/A   Clear
6:50 PM 46.4 °F 41.5 °F 28.4 °F 50% 30.24 in - East 10.4 mph - N/A   Clear
7:50 PM 44.6 °F 38.8 °F 28.4 °F 53% 30.24 in - East 11.5 mph - N/A   Clear
8:50 PM 41.0 °F 34.7 °F 30.2 °F 65% 30.27 in - ESE 10.4 mph - N/A   Clear
9:00 PM 41 °F - 29 °F 52%  in 6 mi ESE 10.4 mph - -  
9:50 PM 41.0 °F 38.0 °F 30.2 °F 65% 30.27 in - East 4.6 mph - N/A   Clear
10:50 PM 41.0 °F - 30.2 °F 65% 30.27 in - ENE 1.2 mph - N/A   Clear
11:50 PM 39.2 °F 34.2 °F 30.2 °F 70% 30.27 in - ENE 6.9 mph - N/A   Clear